Regional Weather Roundup
Issued by NWS

Home | Current Version | Previous Version | Text Only | Print | Product List | Glossary Off
Versions: 1 2 3 4 5 6 7 8 9 10 11 12 13 14 15 16 17 18 19 20 21 22 23 24 25 26 27 28 29 30 31 32 33 34 35 36 37 38 39 40 41 42 43 44 45 46 47 48 49 50

000
ASUS43 KLMK 240310
RWRKY
KENTUCKY REGIONAL WEATHER ROUNDUP
NATIONAL WEATHER SERVICE LOUISVILLE KY
1100 PM EDT THU MAR 23 2017

NOTE "FAIR" INDICATES FEW OR NO CLOUDS BELOW 12,000 FEET
WITH NO SIGNIFICANT WEATHER AND/OR OBSTRUCTIONS TO VISIBILITY.

KYZ001>023-026-027-061>063-070>075-240400-
WESTERN AND SOUTH CENTRAL KENTUCKY

CITY           SKY/WX    TMP DP  RH WIND       PRES   REMARKS
PADUCAH        CLEAR     54  42  64 SE8       30.11F
HENDERSON      CLEAR     43  37  81 SE3       30.13F
OWENSBORO      CLEAR     52  43  71 SE8       30.16F
HOPKINSVILLE   CLEAR     59  43  54 SE6       30.16F
BOWLING GREEN  CLEAR     53  43  68 SE6       30.21F
GLASGOW        CLEAR     56  42  58 SE7       30.22F
$$

KYZ024-025-028>034-038-045-046-053-240400-
NORTH CENTRAL KENTUCKY

CITY           SKY/WX    TMP DP  RH WIND       PRES   REMARKS
LOUISVILLE/SDF PTCLDY    57  34  41 SE6       30.20F
LOUISVILLE/LOU PTCLDY    59  36  42 S5        30.21F
FORT KNOX      PTCLDY    57  41  54 SE14      30.19F
$$

KYZ035>037-039>044-047>052-055>060-089>105-240400-
NORTHEAST KENTUCKY

CITY           SKY/WX    TMP DP  RH WIND       PRES   REMARKS
LEXINGTON      CLOUDY    54  34  46 S7        30.23F
COVINGTON      CLOUDY    53  33  46 SE7       30.21F
FRANKFORT      PTCLDY    56  33  42 S5        30.21F
$$

KYZ054-064>069-076>088-106>120-240400-
SOUTHEAST KENTUCKY

CITY           SKY/WX    TMP DP  RH WIND       PRES   REMARKS
JACKSON        CLEAR     57  31  37 S5        30.28F
LONDON         MOCLDY    56  35  45 S3        30.29F
SOMERSET       CLOUDY    55  36  47 S7        30.29F
MIDDLESBORO    MOCLDY    47  40  76 CALM      30.33R
MONTICELLO     CLEAR     58  40  51 E8        30.29F
$$





USA.gov is the U.S. government's official web portal to all federal, state and local government web resources and services.